TimeEST,TemperatureF,Dew PointF,Humidity,Sea Level PressureIn,VisibilityMPH,Wind Direction,Wind SpeedMPH,Gust SpeedMPH,PrecipitationIn,Events,Conditions,WindDirDegrees,DateUTC
12:54 AM,46.0,36.0,68,30.39,10.0,ENE,8.1,-,N/A,,Overcast,60,2013-12-08 05:54:00
1:54 AM,46.0,36.0,68,30.38,10.0,ENE,5.8,-,N/A,,Overcast,70,2013-12-08 06:54:00
2:36 AM,45.0,34.0,65,30.36,10.0,ENE,6.9,18.4,N/A,,Overcast,70,2013-12-08 07:36:00
2:54 AM,45.0,34.0,65,30.37,10.0,East,8.1,-,N/A,,Overcast,100,2013-12-08 07:54:00
3:54 AM,45.0,34.0,65,30.38,10.0,Variable,4.6,-,N/A,,Overcast,0,2013-12-08 08:54:00
4:54 AM,43.0,34.0,71,30.36,10.0,Variable,6.9,-,N/A,,Overcast,0,2013-12-08 09:54:00
5:54 AM,42.1,34.0,73,30.38,10.0,Variable,5.8,-,N/A,,Overcast,0,2013-12-08 10:54:00
6:54 AM,39.9,35.1,83,30.39,6.0,Variable,6.9,-,0.00,,Haze,0,2013-12-08 11:54:00
7:13 AM,39.9,36.0,86,30.39,4.0,ENE,4.6,-,0.00,Rain,Light Rain,60,2013-12-08 12:13:00
7:50 AM,39.2,35.6,87,30.38,4.0,Variable,5.8,-,0.00,,Overcast,0,2013-12-08 12:50:00
7:54 AM,39.0,36.0,89,30.40,5.0,Variable,5.8,-,0.00,,Overcast,0,2013-12-08 12:54:00
8:54 AM,37.9,35.1,89,30.42,3.0,ENE,5.8,-,0.00,Rain,Light Rain,60,2013-12-08 13:54:00
9:08 AM,37.9,35.1,89,30.40,2.5,Variable,3.5,-,0.00,,Overcast,0,2013-12-08 14:08:00
9:18 AM,37.9,35.1,89,30.39,3.0,ENE,5.8,-,0.00,,Overcast,70,2013-12-08 14:18:00
9:33 AM,37.9,35.1,89,30.40,2.5,ENE,8.1,-,0.00,,Overcast,70,2013-12-08 14:33:00
9:42 AM,37.9,35.1,89,30.40,4.0,East,8.1,-,0.00,,Overcast,80,2013-12-08 14:42:00
9:54 AM,37.9,35.1,89,30.41,6.0,East,8.1,-,0.00,,Overcast,90,2013-12-08 14:54:00
10:51 AM,37.4,35.6,93,30.40,4.0,ENE,6.9,-,N/A,,Overcast,60,2013-12-08 15:51:00
10:54 AM,37.9,35.1,89,30.42,3.0,ENE,8.1,-,N/A,,Overcast,70,2013-12-08 15:54:00
11:16 AM,37.9,35.1,89,30.40,1.8,Variable,5.8,-,0.00,Rain,Light Rain,0,2013-12-08 16:16:00
11:54 AM,37.0,36.0,96,30.40,1.5,NE,5.8,-,0.00,,Overcast,40,2013-12-08 16:54:00
12:43 PM,37.0,36.0,96,30.37,2.5,ENE,4.6,-,0.02,Rain,Light Rain,60,2013-12-08 17:43:00
12:54 PM,37.0,36.0,96,30.37,2.0,ENE,5.8,-,0.03,Rain,Light Rain,70,2013-12-08 17:54:00
1:13 PM,37.9,36.0,93,30.35,5.0,NNE,6.9,-,0.00,,Overcast,20,2013-12-08 18:13:00
1:54 PM,37.0,35.1,93,30.35,10.0,NE,5.8,-,0.00,,Overcast,50,2013-12-08 18:54:00
2:16 PM,37.0,34.0,89,30.32,10.0,Variable,5.8,-,N/A,,Overcast,0,2013-12-08 19:16:00
2:54 PM,37.0,34.0,89,30.34,7.0,NNE,3.5,-,N/A,,Overcast,20,2013-12-08 19:54:00
3:54 PM,37.0,34.0,89,30.34,10.0,NE,4.6,-,N/A,,Overcast,50,2013-12-08 20:54:00
4:20 PM,36.0,34.0,93,30.33,2.0,NE,8.1,-,0.00,Rain,Light Rain,40,2013-12-08 21:20:00
4:39 PM,36.0,34.0,93,30.32,2.5,Variable,4.6,-,0.00,,Overcast,0,2013-12-08 21:39:00
4:54 PM,36.0,35.1,97,30.35,2.0,Variable,5.8,-,0.00,,Overcast,0,2013-12-08 21:54:00
5:15 PM,36.0,34.0,93,30.33,3.0,Variable,4.6,-,N/A,,Overcast,0,2013-12-08 22:15:00
5:54 PM,36.0,34.0,93,30.33,4.0,East,5.8,-,N/A,,Overcast,80,2013-12-08 22:54:00
6:54 PM,35.1,33.1,92,30.35,10.0,ENE,6.9,-,N/A,,Overcast,60,2013-12-08 23:54:00
7:49 PM,35.6,33.8,93,30.33,2.5,NNE,5.8,-,N/A,,Overcast,30,2013-12-09 00:49:00
7:54 PM,35.1,34.0,96,30.36,2.5,NE,4.6,-,N/A,,Overcast,40,2013-12-09 00:54:00
8:07 PM,35.1,34.0,96,30.33,3.0,ENE,6.9,-,N/A,,Overcast,70,2013-12-09 01:07:00
8:25 PM,35.1,34.0,96,30.33,2.5,Variable,4.6,-,N/A,,Overcast,0,2013-12-09 01:25:00
8:50 PM,35.6,33.8,93,30.32,3.0,ENE,5.8,-,N/A,,Overcast,60,2013-12-09 01:50:00
8:51 PM,35.6,33.8,93,30.32,3.0,ENE,4.6,-,N/A,,Overcast,60,2013-12-09 01:51:00
8:54 PM,35.1,34.0,96,30.35,3.0,ENE,3.5,-,N/A,,Overcast,60,2013-12-09 01:54:00
9:04 PM,35.1,34.0,96,30.32,2.5,ENE,5.8,-,N/A,,Overcast,60,2013-12-09 02:04:00
9:24 PM,35.1,34.0,96,30.33,3.0,Variable,3.5,-,N/A,,Overcast,0,2013-12-09 02:24:00
9:43 PM,35.1,34.0,96,30.32,2.5,East,3.5,-,N/A,,Overcast,80,2013-12-09 02:43:00
9:54 PM,35.1,34.0,96,30.35,2.0,NE,3.5,-,N/A,,Overcast,50,2013-12-09 02:54:00
10:21 PM,35.1,33.1,92,30.31,4.0,Variable,3.5,-,N/A,,Overcast,0,2013-12-09 03:21:00
10:44 PM,35.1,34.0,96,30.31,5.0,ENE,4.6,-,N/A,,Overcast,70,2013-12-09 03:44:00
10:54 PM,35.1,34.0,96,30.33,5.0,Calm,Calm,-,N/A,,Overcast,0,2013-12-09 03:54:00
11:27 PM,35.1,34.0,96,30.29,2.5,ENE,3.5,-,N/A,,Overcast,70,2013-12-09 04:27:00
11:50 PM,35.6,33.8,93,30.28,5.0,NE,3.5,-,N/A,,Overcast,40,2013-12-09 04:50:00
11:54 PM,35.1,34.0,96,30.30,5.0,Variable,3.5,-,N/A,,Overcast,0,2013-12-09 04:54:00